RH
12 16 11 8 14 18 22 24 21 20 20 22 24 27 27 36 51 53 45 39 40 46 50 56 66 72 72 68 62 58 54 53 54 55 54 40 28 27 25 21 16 11 10 11
16 20 10 10 16 22 20 24 24 22 26 26 26 33 31 45 50 48 45 41 44 48 46 49 58 70 70 62 61 59 55 55 58 57 44 30 30 28 23 20 16 13 11 13
20 15 16 20 22 24 20 25 22 21 19 24 26 42 45 53 58 51 49 51 47 51 50 47 56 71 69 62 61 60 56 61 57 35 28 26 28 32 25 23 21 16 13 12
20 16 14 16 24 22 24 22 21 13 23 27 30 42 47 39 46 49 51 44 36 45 45 47 59 66 66 60 63 60 59 58 48 30 27 31 41 41 43 39 37 27 20 16
18 21 16 22 20 22 22 22 20 20 29 30 32 32 31 42 41 32 35 51 36 36 37 39 53 65 65 61 64 59 56 58 40 33 36 42 52 47 49 50 52 51 39 23
30 23 24 24 22 23 23 22 21 22 26 34 30 28 41 34 27 25 30 49 43 35 36 42 60 71 63 63 64 61 54 56 42 39 46 53 52 53 60 64 68 66 60 42
35 32 23 27 29 25 26 24 27 38 40 41 27 31 30 35 27 25 33 46 44 38 39 44 48 50 60 62 63 65 57 54 48 46 52 61 63 65 68 72 77 79 68 55
37 36 26 25 28 28 27 24 29 49 53 41 31 39 39 36 36 34 40 54 50 26 34 48 39 50 59 64 62 66 63 59 56 56 55 61 68 73 76 80 86 90 69 63
41 39 32 27 23 28 28 26 24 26 33 50 38 39 42 49 48 50 55 54 42 29 32 35 38 44 59 65 62 64 67 66 66 67 65 66 72 79 86 86 89 75 84 68
35 40 37 34 29 32 32 27 27 30 48 47 37 37 42 38 51 54 53 58 46 46 40 33 33 40 54 62 64 65 67 69 73 75 75 75 78 83 88 85 88 83 88 68
36 36 40 39 37 32 32 31 28 31 33 58 66 50 37 50 54 53 50 49 45 32 28 30 29 36 48 58 63 68 72 70 71 75 77 81 85 87 88 90 96 83 88 73
43 37 41 41 39 40 30 30 28 31 38 44 59 50 45 42 59 55 47 42 58 37 54 39 33 38 45 42 42 46 60 67 72 75 73 77 83 84 87 93 98 98 90 72
43 45 47 48 42 36 41 31 29 29 31 34 57 53 51 48 54 50 45 46 51 49 62 55 66 53 54 58 63 66 64 57 70 74 74 78 79 83 87 93 96 98 98 69
45 44 46 48 39 34 45 37 37 36 38 39 43 46 52 56 54 53 51 58 59 57 57 60 62 65 68 67 69 74 75 80 85 78 80 87 82 86 91 97 82 100 100 63
52 49 42 41 44 50 45 48 56 52 51 46 40 44 60 59 54 53 55 59 61 62 63 65 65 69 68 70 75 78 80 83 87 88 90 91 93 93 91 99 100 99 100 54
58 59 51 57 55 59 60 53 59 58 57 65 58 71 64 58 59 60 59 59 60 62 64 66 70 73 73 75 77 80 83 87 94 93 94 90 89 87 87 98 100 99 96 50
62 62 66 68 65 66 78 54 56 61 56 67 59 52 68 59 56 60 52 54 58 56 61 62 60 60 60 60 67 82 89 95 92 72 79 82 85 85 89 100 100 99 64 50
62 65 66 61 81 95 70 50 51 60 63 67 61 62 58 56 57 57 57 57 56 55 54 51 49 46 32 32 58 91 95 85 60 61 73 67 67 79 90 97 99 85 50 63
67 58 64 66 86 68 57 53 50 59 58 54 54 54 60 50 52 54 54 53 53 52 47 42 45 47 48 49 48 49 52 52 55 64 67 69 72 74 87 96 65 53 58 71
64 58 59 73 79 92 57 55 55 55 56 52 52 51 49 49 51 51 51 51 51 45 32 38 31 22 21 24 36 49 54 58 64 67 69 71 75 74 58 64 70 67 73 73
90 77 71 72 76 68 61 52 54 57 49 44 42 39 36 52 54 53 50 41 30 27 35 31 27 20 18 21 26 34 49 58 61 60 60 59 65 71 78 82 79 77 85 91
89 84 84 78 80 73 60 57 51 51 50 41 31 45 49 44 38 38 35 26 22 24 24 21 23 26 28 32 36 39 42 50 62 66 69 74 76 79 86 91 90 92 99 99
77 68 74 72 70 48 57 57 55 49 48 42 34 39 46 47 35 28 29 31 35 36 33 38 39 45 41 40 49 50 45 60 64 69 76 82 85 87 90 89 97 98 99 94
71 65 57 52 54 59 54 53 57 56 54 51 51 45 38 34 38 38 44 61 63 47 46 50 49 44 54 65 72 79 89 91 92 81 78 88 89 95 98 99 99 98 98 93
50 50 53 52 47 47 63 55 48 57 60 60 59 51 42 46 52 58 63 55 48 47 48 53 55 56 56 63 76 83 85 94 98 93 96 92 98 95 96 96 92 91 68 67
54 52 53 54 42 40 52 64 61 64 69 67 64 60 56 62 57 56 60 59 46 37 40 44 46 44 49 54 61 77 83 95 99 100 89 93 98 97 99 88 81 94 91 79
Wind_Speed
20 21 23 14 11 13 19 23 18 19 12 28 24 24 25 22 22 23 22 20 18 16 13 13 15 18 13 11 9 9 8 5 6 6 9 6 5 5 7 11 15 15 14 15
25 28 21 16 13 17 19 19 22 21 12 20 21 20 25 24 22 22 23 22 24 23 19 15 15 16 15 11 10 9 8 6 9 6 7 4 3 6 10 12 13 14 15 17
26 27 11 18 14 15 18 18 22 20 14 20 21 21 26 25 24 25 28 28 28 26 25 17 14 16 15 11 10 10 9 8 5 5 3 3 3 7 10 12 14 16 18 18
30 29 26 24 25 15 18 19 20 16 18 18 24 17 25 24 26 27 27 27 27 28 27 20 18 17 15 13 12 10 9 7 7 6 3 4 6 8 11 14 17 19 21 22
40 24 21 23 24 21 28 23 20 20 22 13 20 16 7 28 25 27 28 28 25 28 24 20 19 16 17 16 13 11 10 8 9 6 6 9 8 10 13 15 18 22 24 23
38 32 26 24 25 25 20 23 24 23 27 17 24 24 15 19 23 26 27 27 21 25 23 21 20 20 21 19 17 13 11 11 11 7 7 10 11 12 12 17 20 22 24 26
34 39 30 29 27 23 19 26 11 8 8 11 26 23 21 18 25 25 24 22 19 20 23 22 21 23 23 21 17 15 12 13 12 10 10 12 13 14 16 18 20 23 23 25
20 28 34 30 32 28 22 26 18 7 4 9 17 9 13 22 11 22 20 17 15 13 16 20 17 20 21 21 19 17 14 15 14 12 14 16 17 18 20 21 23 26 24 27
17 31 28 22 33 27 23 30 32 29 21 7 10 14 13 8 8 15 18 19 15 11 13 14 14 14 20 24 22 18 17 15 16 16 18 19 20 21 23 25 27 30 27 27
33 35 30 22 27 28 30 31 26 21 7 11 9 22 15 17 18 20 22 20 15 11 10 12 10 10 12 18 24 23 20 18 17 19 19 21 22 23 24 24 25 29 24 26
30 34 32 27 28 29 34 36 33 23 23 6 3 14 20 19 23 19 22 21 17 11 10 11 9 8 10 15 18 21 21 21 21 20 20 21 22 22 23 23 23 30 24 26
23 32 34 37 31 23 24 35 45 27 11 12 6 7 10 12 24 18 18 18 19 15 15 11 9 10 14 16 15 14 15 16 19 20 23 23 23 23 24 25 25 23 29 27
32 24 24 23 30 29 17 33 38 34 28 31 14 5 7 13 15 13 13 15 15 16 16 14 15 14 13 13 13 12 13 15 20 23 24 26 27 26 26 26 32 22 28 24
25 25 27 25 25 31 22 22 24 28 25 26 26 25 23 18 22 17 16 15 17 17 16 17 20 22 22 22 21 20 21 22 23 25 27 29 30 30 30 30 29 26 25 23
27 22 26 25 23 23 34 23 19 22 11 23 31 25 29 23 19 18 19 19 17 20 21 21 23 27 27 26 26 26 26 28 29 31 32 31 32 31 32 32 32 28 27 24
36 24 22 21 22 20 26 31 19 18 17 17 17 22 20 18 16 20 22 25 21 20 23 24 25 28 32 31 30 29 28 30 31 32 31 31 32 31 30 35 32 26 26 25
38 32 25 19 20 18 20 31 35 19 28 22 30 34 21 20 27 27 22 20 23 25 28 27 26 29 30 33 31 29 28 29 30 30 28 30 29 28 29 30 27 30 23 25
45 34 25 16 21 8 21 21 25 31 24 19 13 11 16 14 26 26 23 21 23 24 27 30 32 29 28 26 26 28 29 31 30 28 28 29 28 28 27 26 29 24 25 24
39 38 20 18 27 14 15 20 29 31 32 30 27 27 27 28 26 27 26 24 23 24 27 30 32 32 32 31 27 26 25 27 28 28 28 27 26 26 25 24 24 25 25 24
38 40 37 21 11 9 24 17 16 21 30 24 24 28 28 27 27 25 24 23 26 26 24 23 21 19 21 24 24 25 26 26 26 26 25 26 24 22 23 23 24 26 25 24
32 36 36 25 18 14 18 20 24 27 22 27 26 25 25 25 23 23 24 23 22 22 22 22 24 25 23 21 23 25 24 24 22 24 25 23 22 22 23 25 25 26 26 25
38 29 30 32 22 16 18 23 31 33 28 14 20 22 20 19 19 21 23 23 21 20 21 22 19 17 16 17 18 20 22 21 25 25 25 25 25 26 27 27 29 31 31 28
39 43 33 33 30 10 21 23 25 24 20 19 17 19 21 21 21 22 20 18 18 21 20 18 18 19 19 20 20 21 20 22 21 24 27 29 31 33 34 35 38 34 34 26
40 40 31 31 30 27 22 20 26 25 26 22 20 22 23 19 18 19 20 21 23 23 20 21 23 25 25 26 25 22 23 26 26 28 32 31 31 36 37 43 39 34 29 23
43 36 35 35 25 22 25 23 21 24 24 22 19 19 21 19 20 23 26 26 22 21 23 25 26 26 27 27 29 30 30 30 33 35 34 36 35 41 38 41 31 27 25 27
39 41 40 36 30 28 27 25 23 23 24 23 22 23 22 23 24 26 24 22 23 25 23 22 23 23 25 27 31 32 35 36 34 37 42 40 40 30 33 33 32 31 32 34
Wind_Direction
264 256 252 263 260 257 268 283 287 283 270 221 233 232 238 235 229 238 246 257 250 237 231 227 225 236 253 276 283 291 285 297 320 292 309 321 335 337 335 339 341 337 339 345
248 246 261 269 252 271 258 271 267 276 235 220 230 224 230 226 234 238 241 246 246 240 242 236 230 229 242 256 268 275 281 288 304 313 322 333 357 342 344 348 344 343 347 354
248 255 261 256 239 291 245 252 265 275 251 269 252 215 218 218 222 227 234 240 244 239 245 245 234 231 237 243 255 265 272 286 296 305 304 294 351 360 1 360 353 353 352 353
260 258 255 234 237 263 261 251 265 271 276 266 241 237 222 225 231 236 234 240 242 234 242 243 230 230 229 236 244 261 266 264 270 279 304 331 348 349 352 357 360 356 358 354
247 251 255 246 248 253 260 250 255 268 279 277 225 241 236 225 237 252 252 248 246 241 244 245 234 227 220 232 240 254 259 246 261 282 325 327 325 331 336 342 350 356 355 352
249 246 238 242 246 255 269 249 261 263 268 256 255 254 255 245 267 268 256 247 245 247 248 240 230 224 221 229 234 245 250 247 263 291 320 322 327 338 338 347 347 342 342 348
247 243 244 243 259 247 262 235 248 276 251 246 261 269 276 294 273 258 255 244 235 253 243 236 239 224 224 234 236 242 247 249 260 279 296 303 319 327 338 336 338 339 337 342
251 251 241 232 244 248 242 231 221 212 230 270 273 254 274 267 273 246 247 234 238 243 230 231 218 222 230 235 237 241 243 246 255 268 279 289 305 316 318 324 331 333 334 336
251 248 250 247 237 242 234 236 238 246 251 258 253 267 270 250 218 204 205 214 230 238 218 207 208 218 227 233 239 248 247 250 257 268 277 285 296 303 308 318 327 326 330 332
248 257 254 259 249 246 250 238 236 239 218 252 253 269 250 264 234 212 216 220 236 247 225 215 210 221 235 237 237 246 252 257 259 266 273 279 287 293 298 310 309 323 322 325
241 248 253 256 259 250 254 236 233 244 231 198 252 252 259 269 225 230 222 228 238 249 250 235 222 235 254 250 247 248 256 262 263 266 272 274 277 282 289 294 303 314 321 320
239 246 242 249 247 252 235 235 227 222 214 224 257 270 240 252 225 221 229 235 233 251 261 244 250 262 265 265 270 276 276 276 273 271 270 271 271 276 280 283 286 300 312 314
238 229 232 244 242 244 237 220 220 228 242 234 216 254 208 194 186 220 243 229 232 250 252 258 262 268 270 277 287 296 295 296 295 286 282 278 276 275 275 275 290 295 296 309
221 226 216 221 230 234 230 220 225 229 231 225 234 239 239 200 208 224 236 233 237 247 250 258 264 268 268 276 281 292 299 298 302 304 300 296 286 279 273 271 289 278 290 310
227 232 229 235 237 239 230 228 220 224 230 234 237 242 238 211 242 234 224 235 236 245 250 254 261 260 267 274 279 284 289 293 296 298 301 300 294 284 275 272 268 280 290 306
226 237 228 224 219 225 235 233 238 221 217 230 194 201 211 240 220 223 230 231 243 237 246 254 258 261 266 273 276 282 286 289 292 296 296 294 290 282 273 271 279 281 291 299
214 220 202 206 211 220 233 228 232 252 230 252 235 243 227 231 225 227 244 233 233 237 243 247 249 258 261 263 266 273 282 283 288 292 295 293 287 281 276 272 277 278 293 293
217 212 204 215 200 221 238 251 243 246 217 216 213 207 246 241 221 222 225 233 229 238 253 257 261 269 269 274 262 261 268 277 284 286 288 286 283 279 274 267 268 280 281 290
212 206 203 207 205 244 245 231 208 214 222 232 238 237 222 229 225 215 219 229 243 254 263 260 264 267 273 276 276 272 272 275 277 280 281 280 277 274 270 267 269 273 278 287
205 215 213 206 203 215 231 205 217 218 229 228 224 233 235 228 225 236 246 256 264 268 264 262 261 269 275 272 268 266 267 269 271 274 276 274 274 275 278 276 276 276 277 283
200 206 208 208 218 237 220 214 210 208 230 221 229 231 231 230 241 253 261 265 266 266 268 271 271 274 271 266 265 266 267 268 275 272 273 274 278 281 281 279 276 274 270 275
192 188 202 209 216 242 236 210 211 230 236 230 208 216 222 235 246 252 258 260 259 261 269 271 270 270 268 266 270 275 277 281 277 276 276 278 279 281 280 274 271 264 261 255
201 204 196 212 218 236 227 224 209 216 225 218 214 219 226 235 246 257 263 265 270 286 285 283 286 287 287 286 289 292 291 286 286 284 282 283 285 285 287 282 272 273 282 277
206 216 216 220 224 227 230 212 219 224 227 229 238 240 238 244 264 266 269 273 279 282 280 287 291 295 297 293 292 294 290 293 285 292 293 283 283 280 279 276 282 284 285 285
212 208 214 221 224 221 215 214 218 219 221 230 233 234 238 253 264 258 260 273 284 287 289 289 291 293 294 291 290 294 294 289 292 295 286 287 284 285 281 292 295 297 301 291
224 229 228 227 235 225 210 200 209 217 220 226 235 240 245 258 258 263 271 279 286 289 298 300 298 297 295 295 294 291 290 293 292 292 298 288 288 288 290 292 299 297 296 290